Hammond, LA

2:59 PM CST on December 11, 2019 (GMT -0600)
Hammond Municipal

Weather History for KHDC - October, 2019

Change the Weather History Date:

Wednesday, October 16, 2019

  Actual Average (KMSY) Record (KMSY)
Temperature  
Mean Temperature 64 °F -  
Max Temperature 73 °F 79 °F 91 °F (2015)
Min Temperature 55 °F 60 °F 45 °F (1987)
Degree Days  
Heating Degree Days 1    
Growing Degree Days 14 (Base 50)    
Moisture  
Dew Point 66 °F    
Average Humidity 91    
Maximum Humidity 100    
Minimum Humidity 77    
Precipitation  
Precipitation 0.17 in - - ()
Sea Level Pressure  
Sea Level Pressure 29.96 in    
Wind  
Wind Speed 3 mph (North)    
Max Wind Speed 18 mph    
Max Gust Speed 22 mph    
Visibility 9 miles    
Events Thunderstorm    
Averages and records for this station are not official NWS values.
T = Trace of Precipitation, MM = Missing Value Source: NWS Daily Summary

Daily Weather History Graph

Daily Weather History Graph

Search for Another Location

Airport or City:

Astronomy

Oct. 16, 2019 Rise Set
Actual Time 7:04 AM CDT 6:29 PM CDT
Civil Twilight 6:40 AM CDT 6:53 PM CDT
Nautical Twilight 6:12 AM CDT 7:21 PM CDT
Astronomical Twilight 5:44 AM CDT 7:49 PM CDT
Moon 8:32 PM CDT (10/16) 9:27 AM CDT (10/16)
Length of Visible Light 12h 13m
Length of Day
11h 25m
Waning Gibbous, 92% of the Moon is Illuminated
Oct 16
Waning Gibbous
Oct 21
Last Quarter
Oct 27
New
Nov 4
First Quarter
Nov 12
Full

Hourly Weather History & Observations

Time (CDT) Temp. Dew Point Humidity Pressure Visibility Wind Dir Wind Speed Gust Speed Precip Events Conditions
12:15 AM 71.6 °F 71.6 °F 100% 29.93 in 10.0 mi Calm Calm - N/A   Overcast
12:35 AM 71.6 °F 71.6 °F 100% 29.92 in 10.0 mi Calm Calm - 0.01 in   Overcast
12:55 AM 71.6 °F 69.8 °F 94% 29.92 in 7.0 mi Calm Calm - 0.01 in   Overcast
1:35 AM 71.6 °F 71.6 °F 100% 29.91 in 10.0 mi Calm Calm - N/A   Overcast
1:55 AM 71.6 °F 69.8 °F 94% 29.90 in 10.0 mi Calm Calm - N/A   Overcast
2:15 AM 71.6 °F 71.6 °F 100% 29.90 in 10.0 mi Calm Calm - N/A   Overcast
2:35 AM 71.6 °F 71.6 °F 100% 29.90 in 10.0 mi Calm Calm - N/A   Overcast
2:55 AM 71.6 °F 71.6 °F 100% 29.90 in 10.0 mi Calm Calm - 0.01 in   Overcast
3:15 AM 71.6 °F 69.8 °F 94% 29.89 in 10.0 mi Calm Calm - N/A   Overcast
3:35 AM 71.6 °F 69.8 °F 94% 29.90 in 10.0 mi Calm Calm - N/A   Overcast
3:55 AM 69.8 °F 69.8 °F 100% 29.89 in 7.0 mi Calm Calm - N/A   Overcast
4:15 AM 69.8 °F 69.8 °F 100% 29.88 in 7.0 mi Calm Calm - 0.01 in   Mostly Cloudy
4:35 AM 69.8 °F 69.8 °F 100% 29.88 in 7.0 mi Calm Calm - 0.01 in   Scattered Clouds
4:55 AM 69.8 °F 69.8 °F 100% 29.88 in 7.0 mi Calm Calm - 0.01 in   Scattered Clouds
5:15 AM 69.8 °F 69.8 °F 100% 29.88 in 7.0 mi Calm Calm - N/A Thunderstorm Scattered Clouds
5:35 AM 69.8 °F 69.8 °F 100% 29.89 in 7.0 mi Calm Calm - N/A   Scattered Clouds
5:55 AM 69.8 °F 69.8 °F 100% 29.88 in 5.0 mi Calm Calm - N/A   Mostly Cloudy
6:15 AM 69.8 °F 69.8 °F 100% 29.89 in 5.0 mi Calm Calm - 0.01 in   Overcast
6:35 AM 69.8 °F 69.8 °F 100% 29.90 in 4.0 mi Calm Calm - 0.01 in   Overcast
6:55 AM 69.8 °F 69.8 °F 100% 29.90 in 7.0 mi Calm Calm - 0.01 in   Mostly Cloudy
7:15 AM 69.8 °F 69.8 °F 100% 29.93 in 7.0 mi North 10.4 mph - 0.01 in   Mostly Cloudy
7:35 AM 69.8 °F 68.0 °F 94% 29.95 in 7.0 mi North 10.4 mph 17.3 mph 0.01 in   Overcast
7:55 AM 68.0 °F 68.0 °F 100% 29.97 in 5.0 mi NW 5.8 mph - 0.01 in   Overcast
8:15 AM 68.0 °F 68.0 °F 100% 29.97 in 10.0 mi Calm Calm - N/A   Overcast
8:35 AM 68.0 °F 68.0 °F 100% 29.99 in 7.0 mi West 3.5 mph - N/A   Overcast
8:55 AM 68.0 °F 68.0 °F 100% 29.99 in 4.0 mi SW 4.6 mph - 0.01 in   Overcast
9:35 AM 68.0 °F 68.0 °F 100% 29.99 in 10.0 mi Calm Calm - N/A   Mostly Cloudy
9:55 AM 69.8 °F 68.0 °F 94% 29.98 in 10.0 mi South 4.6 mph - N/A   Overcast
10:15 AM 69.8 °F 68.0 °F 94% 29.98 in 10.0 mi Calm Calm - 0.01 in   Overcast
10:35 AM 69.8 °F 68.0 °F 94% 29.98 in 10.0 mi NNW 4.6 mph - 0.01 in   Mostly Cloudy
10:55 AM 69.8 °F 68.0 °F 94% 29.98 in 10.0 mi NW 4.6 mph - 0.01 in   Mostly Cloudy
11:15 AM 69.8 °F 68.0 °F 94% 29.99 in 10.0 mi West 3.5 mph - N/A   Overcast
11:35 AM 71.6 °F 69.8 °F 94% 29.99 in 10.0 mi NW 5.8 mph - 0.01 in   Mostly Cloudy
11:55 AM 71.6 °F 68.0 °F 88% 30.00 in 10.0 mi North 5.8 mph - 0.01 in   Mostly Cloudy
12:15 PM 71.6 °F 69.8 °F 94% 29.99 in 10.0 mi NNW 4.6 mph - N/A   Mostly Cloudy
12:35 PM 71.6 °F 68.0 °F 88% 29.99 in 10.0 mi NNW 4.6 mph - 0.01 in   Overcast
12:55 PM 73.4 °F 69.8 °F 88% 29.99 in 10.0 mi NNW 5.8 mph - 0.01 in   Overcast
1:15 PM 73.4 °F 69.8 °F 88% 29.97 in 10.0 mi North 8.1 mph - N/A   Overcast
1:35 PM 73.4 °F 68.0 °F 83% 29.96 in 10.0 mi North 18.4 mph 21.9 mph N/A   Overcast
1:55 PM 71.6 °F 68.0 °F 88% 29.97 in 10.0 mi North 13.8 mph - 0.01 in   Overcast
2:15 PM 71.6 °F 68.0 °F 88% 29.97 in 10.0 mi North 11.5 mph - N/A   Overcast
2:35 PM 71.6 °F 68.0 °F 88% 29.97 in 10.0 mi North 12.7 mph - N/A   Overcast
2:55 PM 71.6 °F 66.2 °F 83% 29.96 in 10.0 mi North 11.5 mph 17.3 mph 0.01 in   Overcast
3:15 PM 71.6 °F 64.4 °F 78% 29.96 in 10.0 mi North 9.2 mph - N/A   Overcast
3:35 PM 71.6 °F 64.4 °F 78% 29.96 in 10.0 mi North 9.2 mph - N/A   Overcast
3:55 PM 71.6 °F 64.4 °F 78% 29.95 in 10.0 mi North 10.4 mph - N/A   Overcast
4:15 PM 71.6 °F 64.4 °F 78% 29.95 in 10.0 mi North 10.4 mph - 0.01 in   Overcast
4:55 PM 71.6 °F 64.4 °F 78% 29.93 in 10.0 mi North 10.4 mph - 0.01 in   Scattered Clouds
5:15 PM 71.6 °F 64.4 °F 78% 29.94 in 10.0 mi North 10.4 mph - 0.01 in   Scattered Clouds
5:35 PM 69.8 °F 62.6 °F 78% 29.95 in 10.0 mi North 10.4 mph - 0.01 in   Scattered Clouds
5:55 PM 68.0 °F 62.6 °F 83% 29.96 in 10.0 mi North 10.4 mph - 0.01 in   Scattered Clouds
6:15 PM 68.0 °F 60.8 °F 78% 29.96 in 10.0 mi North 10.4 mph - N/A   Scattered Clouds
6:35 PM 64.4 °F 60.8 °F 88% 29.97 in 10.0 mi North 4.6 mph - N/A   Clear
6:55 PM 64.4 °F 60.8 °F 88% 29.98 in 10.0 mi Calm Calm - 0.01 in   Clear
7:55 PM 62.6 °F 60.8 °F 94% 30.02 in 10.0 mi Calm Calm - 0.01 in   Clear
8:15 PM 62.6 °F 60.8 °F 94% 30.03 in 10.0 mi North 3.5 mph - N/A   Clear
8:35 PM 62.6 °F 60.8 °F 94% 30.04 in 10.0 mi North 8.1 mph - N/A   Clear
8:55 PM 62.6 °F 60.8 °F 94% 30.05 in 10.0 mi North 4.6 mph - N/A   Clear
9:15 PM 60.8 °F 57.2 °F 88% 30.05 in 10.0 mi North 8.1 mph - N/A   Clear
9:35 PM 60.8 °F 53.6 °F 77% 30.05 in 10.0 mi North 8.1 mph - 0.01 in   Clear
10:15 PM 59.0 °F 51.8 °F 77% 30.05 in 10.0 mi North 9.2 mph - N/A   Clear
10:35 PM 59.0 °F 51.8 °F 77% 30.06 in 10.0 mi NNE 6.9 mph - N/A   Clear
10:55 PM 57.2 °F 51.8 °F 82% 30.07 in 10.0 mi North 5.8 mph - N/A   Clear
11:15 PM 55.4 °F 51.8 °F 88% 30.06 in 10.0 mi NNE 4.6 mph - 0.01 in   Clear
11:35 PM 55.4 °F 51.8 °F 88% 30.06 in 10.0 mi NNE 4.6 mph - 0.01 in   Clear
11:55 PM 55.4 °F 51.8 °F 88% 30.06 in 10.0 mi North 6.9 mph - 0.01 in   Clear